Waterloo, IA

5:21 PM CDT on October 19, 2017 (GMT -0500)
Waterloo Municipal

Weather History for KALO - February, 2013

Change the Weather History Date:

Sunday, February 10, 2013

  Actual Average Record
Temperature  
Mean Temperature 36 °F 22 °F  
Max Temperature 42 °F 30 °F 57 °F (1977)
Min Temperature 30 °F 13 °F -22 °F (1994)
Degree Days  
Heating Degree Days 29 43  
Month to date heating degree days 425 445  
Since 1 July heating degree days 4461 4699  
Cooling Degree Days 0 0  
Month to date cooling degree days 0 0  
Year to date cooling degree days 0 0  
Moisture  
Dew Point 33 °F    
Average Humidity 90    
Maximum Humidity 100    
Minimum Humidity 79    
Precipitation  
Precipitation 0.47 in 0.03 in 0.47 in (2013)
Month to date precipitation 0.69 0.30  
Year to date precipitation 1.99 1.13  
Snow  
Snow T in 0.30 in 4.10 in (1981)
Month to date snowfall 1.0 3.0  
Since 1 July snowfall 19.8 24.5  
Snow Depth T in    
Sea Level Pressure  
Sea Level Pressure 29.50 in    
Wind  
Wind Speed 16 mph (SSE)    
Max Wind Speed 31 mph    
Max Gust Speed 40 mph    
Visibility 5 miles    
Events Rain , Snow    
T = Trace of Precipitation, MM = Missing Value Source: NWS Daily Summary

Daily Weather History Graph

Daily Weather History Graph

Search for Another Location

Airport or City:

Trip Planner

Search our weather history database for the weather conditions in past years. The results will help you decide how hot, cold, wet, or windy it might be!

Date:

Astronomy

Feb. 10, 2013 Rise Set
Actual Time 7:12 AM CST 5:35 PM CST
Civil Twilight 6:43 AM CST 6:04 PM CST
Nautical Twilight 6:10 AM CST 6:37 PM CST
Astronomical Twilight 5:37 AM CST 7:10 PM CST
Moon 7:01 AM CST (2/10) 6:29 PM CST (2/10)
Length of Visible Light 11h 21m
Length of Day
10h 22m
New Moon, 0% of the Moon is Illuminated
Feb 10
New Moon
Feb 17
First Quarter
Feb 25
Full
Mar 4
Last Quarter
Mar 11
New

Hourly Weather History & Observations

Time (CST) Temp. Windchill Dew Point Humidity Pressure Visibility Wind Dir Wind Speed Gust Speed Precip Events Conditions
12:54 AM 30.0 °F 20.0 °F 27.0 °F 88% 29.92 in 5.0 mi ESE 12.7 mph - 0.00 in   Overcast
1:12 AM 30.2 °F 20.8 °F 28.4 °F 93% 29.88 in 4.0 mi SE 11.5 mph - 0.01 in Rain Light Freezing Rain
1:41 AM 30.2 °F 20.2 °F 28.4 °F 93% 29.86 in 5.0 mi SE 12.7 mph - 0.01 in   Overcast
1:54 AM 30.9 °F 22.2 °F 28.9 °F 92% 29.88 in 4.0 mi SE 10.4 mph - 0.02 in   Overcast
2:08 AM 30.2 °F 20.2 °F 28.4 °F 93% 29.85 in 4.0 mi SE 12.7 mph - 0.00 in Rain Light Freezing Rain
2:51 AM 32.0 °F 23.6 °F 30.2 °F 93% 29.83 in 4.0 mi ESE 10.4 mph - 0.01 in Rain Light Freezing Rain
2:54 AM 32.0 °F 24.2 °F 30.0 °F 92% 29.86 in 4.0 mi ESE 9.2 mph - 0.01 in Rain Light Freezing Rain
3:16 AM 32.0 °F 23.0 °F 30.2 °F 93% 29.83 in 3.0 mi SE 11.5 mph - 0.00 in Rain Light Freezing Rain
3:54 AM 32.0 °F 23.0 °F 30.0 °F 92% 29.82 in 4.0 mi ESE 11.5 mph - 0.01 in Rain Light Freezing Rain
4:06 AM 32.0 °F 22.1 °F 30.2 °F 93% 29.77 in 4.0 mi ESE 13.8 mph - 0.00 in   Overcast
4:54 AM 32.0 °F 21.6 °F 30.9 °F 96% 29.78 in 4.0 mi SE 15.0 mph - 0.00 in   Overcast
5:54 AM 33.1 °F 21.5 °F 32.0 °F 96% 29.69 in 4.0 mi SE 19.6 mph - 0.00 in   Overcast
6:54 AM 33.1 °F 22.2 °F 32.0 °F 96% 29.66 in 3.0 mi ESE 17.3 mph 25.3 mph N/A   Overcast
7:07 AM 33.8 °F 22.5 °F 32.0 °F 93% 29.61 in 2.5 mi ESE 19.6 mph 25.3 mph N/A   Overcast
7:46 AM 33.8 °F 22.5 °F 33.8 °F 100% 29.61 in 1.8 mi SE 19.6 mph - 0.00 in Rain Light Rain
7:54 AM 34.0 °F 23.8 °F 33.1 °F 96% 29.64 in 1.8 mi SE 16.1 mph - 0.00 in   Overcast
8:06 AM 33.8 °F 23.2 °F 33.8 °F 100% 29.60 in 2.0 mi SE 17.3 mph 25.3 mph 0.04 in Rain Rain
8:29 AM 35.6 °F 24.8 °F 33.8 °F 93% 29.56 in 3.0 mi ESE 19.6 mph 26.5 mph 0.12 in Rain Rain
8:49 AM 35.6 °F 24.8 °F 33.8 °F 93% 29.55 in 1.8 mi SE 19.6 mph 26.5 mph 0.22 in Rain Heavy Rain
8:54 AM 35.1 °F 25.2 °F 34.0 °F 96% 29.57 in 2.0 mi ESE 16.1 mph - 0.25 in Rain Rain
9:06 AM 35.6 °F 25.2 °F 33.8 °F 93% 29.54 in 3.0 mi SE 18.4 mph - 0.02 in Rain Rain
9:13 AM 35.6 °F 24.5 °F 33.8 °F 93% 29.51 in 2.0 mi ESE 20.7 mph - 0.04 in Rain Rain
9:26 AM 35.6 °F 24.8 °F 33.8 °F 93% 29.50 in 6.0 mi ESE 19.6 mph 26.5 mph 0.06 in Rain Light Rain
9:54 AM 35.1 °F 24.5 °F 34.0 °F 96% 29.50 in 5.0 mi ESE 18.4 mph 27.6 mph 0.07 in Rain Light Rain
10:28 AM 35.6 °F 26.2 °F 35.6 °F 100% 29.47 in 1.8 mi SE 15.0 mph - 0.04 in Rain Rain
10:45 AM 35.6 °F 25.5 °F 35.6 °F 100% 29.46 in 2.0 mi SE 17.3 mph - 0.06 in Rain Light Rain
10:52 AM 35.6 °F 26.2 °F 35.6 °F 100% 29.46 in 1.2 mi SE 15.0 mph - 0.07 in Rain Light Rain
10:54 AM 36.0 °F 27.1 °F 35.1 °F 97% 29.48 in 1.2 mi SE 13.8 mph 21.9 mph 0.07 in Rain Light Rain
11:43 AM 37.4 °F 27.2 °F 35.6 °F 93% 29.42 in 2.5 mi SE 19.6 mph 24.2 mph 0.04 in Rain Light Rain
11:50 AM 37.4 °F 27.2 °F 35.6 °F 93% 29.39 in 5.0 mi SE 19.6 mph 25.3 mph 0.04 in Rain Light Rain
11:54 AM 37.0 °F 27.4 °F 36.0 °F 96% 29.42 in 5.0 mi SE 17.3 mph 26.5 mph 0.04 in   Overcast
12:54 PM 37.9 °F 29.2 °F 37.0 °F 97% 29.38 in 9.0 mi SSE 15.0 mph 25.3 mph N/A   Overcast
1:44 PM 39.2 °F 32.0 °F 37.4 °F 93% 29.34 in 5.0 mi SSE 11.5 mph - N/A   Overcast
1:54 PM 39.0 °F 31.8 °F 37.9 °F 96% 29.36 in 4.0 mi SSE 11.5 mph - N/A   Overcast
2:19 PM 39.2 °F 31.6 °F 39.2 °F 100% 29.31 in 2.5 mi SE 12.7 mph - N/A   Overcast
2:36 PM 39.2 °F 32.5 °F 39.2 °F 100% 29.30 in 3.0 mi SE 10.4 mph - N/A   Overcast
2:54 PM 39.9 °F 31.8 °F 39.9 °F 100% 29.31 in 3.0 mi SE 15.0 mph - N/A   Overcast
3:54 PM 41.0 °F 35.2 °F 39.9 °F 96% 29.29 in 2.5 mi SE 9.2 mph - N/A   Overcast
4:04 PM 41.0 °F 34.3 °F 41.0 °F 100% 29.27 in 3.0 mi SE 11.5 mph - N/A   Overcast
4:37 PM 42.8 °F 35.1 °F 39.2 °F 87% 29.30 in 6.0 mi SSW 16.1 mph 28.8 mph N/A   Overcast
4:50 PM 42.8 °F 36.2 °F 39.2 °F 87% 29.30 in 10.0 mi SSW 12.7 mph - N/A   Overcast
4:54 PM 42.1 °F 34.9 °F 37.9 °F 85% 29.32 in 10.0 mi SW 13.8 mph 21.9 mph N/A   Overcast
5:54 PM 39.0 °F 28.8 °F 33.1 °F 79% 29.34 in 10.0 mi SW 21.9 mph 29.9 mph N/A   Overcast
6:40 PM 37.4 °F 28.5 °F 33.8 °F 87% 29.34 in 10.0 mi SW 15.0 mph - 0.00 in Rain Light Rain
6:54 PM 37.0 °F 27.4 °F 34.0 °F 89% 29.35 in 10.0 mi SSW 17.3 mph 24.2 mph 0.00 in Rain Light Rain
7:04 PM 35.6 °F 25.5 °F 33.8 °F 93% 29.33 in 9.0 mi SSW 17.3 mph - 0.00 in Rain Light Rain
7:18 PM 35.6 °F 25.5 °F 33.8 °F 93% 29.33 in 10.0 mi SSW 17.3 mph - 0.00 in   Overcast
7:54 PM 36.0 °F 26.0 °F 34.0 °F 93% 29.35 in 4.0 mi SSW 17.3 mph - 0.00 in Rain Light Rain
8:01 PM 35.6 °F 24.5 °F 33.8 °F 93% 29.33 in 4.0 mi SSW 20.7 mph 26.5 mph 0.00 in Rain Light Freezing Rain
8:24 PM 35.6 °F 24.5 °F 33.8 °F 93% 29.32 in 3.0 mi SSW 20.7 mph 26.5 mph 0.00 in Rain Light Rain
8:54 PM 36.0 °F 24.7 °F 34.0 °F 93% 29.36 in 6.0 mi SW 21.9 mph 33.4 mph 0.00 in   Overcast
9:10 PM 35.6 °F 24.0 °F 32.0 °F 87% 29.34 in 10.0 mi SW 23.0 mph 40.3 mph N/A   Overcast
9:27 PM 35.6 °F 23.0 °F 30.2 °F 81% 29.35 in 7.0 mi SW 27.6 mph 40.3 mph 0.00 in Rain Light Rain
9:37 PM 33.8 °F 21.3 °F 30.2 °F 87% 29.35 in 8.0 mi WSW 24.2 mph 36.8 mph 0.00 in   Overcast
9:54 PM 33.1 °F 20.6 °F 30.9 °F 92% 29.39 in 2.0 mi SW 23.0 mph 31.1 mph 0.00 in Snow Light Snow
10:02 PM 33.8 °F 22.2 °F 30.2 °F 87% 29.36 in 2.5 mi SW 20.7 mph 33.4 mph 0.00 in Snow Light Snow
10:06 PM 33.8 °F 21.3 °F 30.2 °F 87% 29.36 in 3.0 mi WSW 24.2 mph 33.4 mph 0.00 in Snow Light Snow
10:54 PM 32.0 °F 18.6 °F 28.9 °F 88% 29.41 in 6.0 mi WSW 25.3 mph 33.4 mph 0.00 in   Overcast
11:01 PM 32.0 °F 18.9 °F 28.4 °F 87% 29.39 in 7.0 mi WSW 24.2 mph 35.7 mph N/A   Overcast
11:54 PM 32.0 °F 18.4 °F 27.0 °F 82% 29.45 in 7.0 mi West 26.5 mph 38.0 mph 0.00 in   Overcast